Regional Weather Roundup
Issued by NWS

Home | Current Version | Previous Version | Text Only | Print | Product List | Glossary On
Versions: 1 2 3 4 5 6 7 8 9 10 11 12 13 14 15 16 17 18 19 20 21 22 23 24 25 26 27 28 29 30 31 32 33 34 35 36 37 38 39 40 41 42 43 44 45 46 47 48 49 50
000
ASUS45 KSLC 190310
RWRUT

UTAH REGIONAL WEATHER ROUNDUP
NATIONAL WEATHER SERVICE SALT LAKE CITY UT
900 PM MDT SAT APR 18 2015

UTZ001>011-023>025-190400-

NORTHERN UTAH

CITY           SKY/WX    TMP DP  RH WIND       PRES   REMARKS
BRIGHAM CITY   CLEAR     58  30  34 NW8       29.99R
HILL AFB       CLEAR     57  33  40 SE3       29.99R
LOGAN          MOCLDY    56  32  40 N9        29.98R
OGDEN          CLEAR     56  34  43 CALM      29.98R
PROVO AIRPORT  PTCLDY    55  39  54 SW8       29.98R
SALT LAKE CITY PTCLDY    59  35  40 NW3       29.97R
VERNAL         MOCLDY    47  37  68 NE7       30.06R
WENDOVER       PTCLDY    63  12  14 N13       30.01R
HEBER CITY     PTCLDY    50  30  46 S3        30.01R
WEST JORDAN    CLEAR     57  34  41 W6        29.99R

$$

UTZ012>022-026-027-190400-

SOUTHERN/CENTRAL UTAH

CITY           SKY/WX    TMP DP  RH WIND       PRES   REMARKS
BLANDING       CLOUDY    43  39  87 NW3       30.09R
BRYCE CANYON   CLEAR     45  18  34 NW10      30.10R
CEDAR CITY     CLEAR     50  18  28 N5        30.01R
DELTA          CLEAR     58  17  20 NE7       29.99R
HANKSVILLE     PTCLDY    57  34  41 NE6       29.97R
MILFORD        PTCLDY    53  18  25 N8        29.99R
MOAB/CYNLANDS  LGT RAIN  51  45  79 CALM      29.99R
PRICE          PTCLDY    53  29  39 NW6       30.00R
ST GEORGE      PTCLDY    73  19  13 W6        29.89R
KANAB          CLEAR     57  18  21 N6        30.01R

$$

REGIONAL REPORTS     COLORADO/ARIZONA

CITY           SKY/WX    TMP DP  RH WIND       PRES   REMARKS
CRAIG, CO      CLOUDY    36  32  85 CALM      30.04S
GRAND JUNCTION PTCLDY    40  38  93 SE10      30.05R WCI  33
RIFLE          CLOUDY    34  32  92 E5        30.06R WCI  30
MONTROSE       MOCLDY    40  36  86 S5        30.07R
CORTEZ         PTCLDY    50  34  54 W14       30.01R
PAGE, AZ       PTCLDY    69  24  18 N7        29.92R
GRAND CANYON   CLEAR     40  13  33 CALM      30.07R
KINGMAN        CLEAR     66  11  11 CALM      29.93R
FLAGSTAFF      PTCLDY    47  13  25 CALM      30.08R

$$

REGIONAL REPORTS    NEVADA/IDAHO/WYOMING

CITY           SKY/WX    TMP DP  RH WIND       PRES   REMARKS
LAS VEGAS, NV  PTCLDY    82  13   7 S13       29.79R
ELY            MOCLDY    54  12  18 N8        30.07R
ELKO           CLEAR     58  22  24 N3        30.08R
POCATELLO, ID  CLEAR     57  23  26 N5        30.01R
BURLEY         CLEAR     57  28  33 W16       30.00R
EVANSTON, WY   CLEAR     45  21  38 N8        30.06R
ROCK SPRINGS   LGT RAIN  41  33  73 SE14      30.09R
KEMMERER       PTCLDY    43  21  42 NE14G20   30.09R

$$



USA.gov is the U.S. government's official web portal to all federal, state and local government web resources and services.